This is the latest recevied weather packets stored in our database for station/object CE3TDM-10. If no packets are shown the sender has not sent any weather packets the latest 10 day(s).
| Time | Temp. | Humidity | Pressure | Rain* | Wind** | Luminosity | Snow |
|---|---|---|---|---|---|---|---|
| 1787414771 | 30.56° C | 30% | 920.4 hPa | - | - | - | - |
| 1787414609 | 30.56° C | 30% | 920.4 hPa | - | - | - | - |
| 1787413840 | 30° C | 31% | 920.7 hPa | - | - | - | - |
| 1787413709 | 30° C | 31% | 920.7 hPa | - | - | - | - |
| 1787413342 | 28.89° C | 30% | 920.9 hPa | - | - | - | - |
| 1787412809 | 28.89° C | 30% | 920.9 hPa | - | - | - | - |
| 1787412445 | 29.44° C | 29% | 920.7 hPa | - | - | - | - |
| 1787411909 | 29.44° C | 29% | 920.7 hPa | - | - | - | - |
| 1787410319 | 32.22° C | 29% | 920.9 hPa | - | - | - | - |
| 1787410110 | 32.22° C | 29% | 920.9 hPa | - | - | - | - |
| 1787409319 | 32.78° C | 31% | 920.8 hPa | - | - | - | - |
| 1787409209 | 32.78° C | 31% | 920.8 hPa | - | - | - | - |
| 1787408310 | 30.56° C | 31% | 921 hPa | - | - | - | - |
| 1787407409 | 31.67° C | 31% | 921 hPa | - | - | - | - |
| 1787406518 | 30° C | 34% | 921 hPa | - | - | - | - |
| 1787405608 | 26.11° C | 34% | 920.8 hPa | - | - | - | - |
| 1787404708 | 23.89° C | 35% | 920.8 hPa | - | - | - | - |
| 1787403808 | 22.78° C | 34% | 920.7 hPa | - | - | - | - |
| 1787402911 | 22.78° C | 34% | 920.4 hPa | - | - | - | - |
| 1787402008 | 22.22° C | 34% | 920.6 hPa | - | - | - | - |
| 1787401110 | 22.22° C | 34% | 920.5 hPa | - | - | - | - |
| 1787400208 | 21.67° C | 34% | 920.4 hPa | - | - | - | - |
| 1787399310 | 21.67° C | 34% | 920.4 hPa | - | - | - | - |
| 1787396607 | 21.67° C | 34% | 920.2 hPa | - | - | - | - |
| 1787395707 | 21.67° C | 34% | 920.1 hPa | - | - | - | - |
* Rain since midnight (hover to see other rain measurements)
** Current wind speed in m/s (hover to see current wind gust speed)